Location: Chassagnes
(44.4047°N, 4.1657°E)
Time: 12:26:15
(UTC+00:00)

Cosmos 2058 - Pass Details

Date: 27 October 2020
Orbit: 561 x 584 km, 82.5° (Epoch: 23 November)

Event Time Altitude Azimuth Distance (km) Brightness Sun altitude
Rises 19:01:05 0° 342° (NNW) 2,764 6.7 -25.9°
Reaches altitude 10° 19:03:24 10° 334° (NNW) 1,862 5.9 -26.3°
Maximum altitude 19:07:07 34° 268° (W) 930 4.4 -26.9°
Drops below altitude 10° 19:10:49 10° 203° (SSW) 1,851 5.6 -27.6°
Enters shadow 19:11:41 - 199° (SSW) 2,178 6.0 -27.7°
